Regional Weather Roundup
Issued by NWS

Home | Current Version | Previous Version | Graphics & Text | Print | Product List | Glossary On
Versions: 1 2 3 4 5 6 7 8 9 10 11 12 13 14 15 16 17 18 19 20 21 22 23 24 25 26 27 28 29 30 31 32 33 34 35 36 37 38 39 40 41 42 43 44 45 46 47 48 49 50
000
ASUS43 KDMX 021607
RWRIA

WEATHER ROUNDUP FOR IOWA
NATIONAL WEATHER SERVICE DES MOINES IA
1100 AM CDT THU JUL 02 2015

NOTE: "FAIR" INDICATES FEW OR NO CLOUDS BELOW 12,000 FEET WITH NO
SIGNIFICANT WEATHER AND/OR OBSTRUCTIONS TO VISIBILITY.

* - THESE STATIONS ARE NOT NWS STATIONS...THUS NOT UNDER NWS
QUALITY CONTROL.  THEY ALSO DO NOT REPORT WEATHER SUCH
AS PRECIPITATION OR FOG.

IAZ001>003-012>014-020>022-031>034-043>046-021700-
   NORTHWEST IOWA

CITY           SKY/WX    TMP DP  RH WIND       PRES   REMARKS
CARROLL *      SUNNY     64  59  82 E12       30.00S
CHEROKEE *     PTSUNNY   65  57  74 SE8       30.01R
DENISON *      SUNNY     64  59  82 E10       29.97S
LE MARS *      SUNNY     64  57  77 VRB7      30.00S
ORANGE CITY *  SUNNY     64  55  72 SE5       30.01R
SHELDON *      SUNNY     68  63  83 VRB6      30.01R
SIOUX CITY     CLOUDY    63  57  81 E6        29.98R
SPENCER        PTSUNNY   65  53  65 E12       30.01S
STORM LAKE *   SUNNY     64  55  72 SE10      30.02S
$$

IAZ055>058-069>071-079>083-090>094-021700-
   SOUTHWEST IOWA

CITY           SKY/WX    TMP DP  RH WIND       PRES   REMARKS
ATLANTIC *     CLOUDY    64  61  88 E7        29.98S
AUDUBON *      SUNNY     66  61  82 E8        29.99F
CLARINDA *     CLOUDY    68  64  88 E8        29.98R
COUNCIL BLFS * PTSUNNY   64  63  94 E9        29.96F
CRESTON *      PTSUNNY   66  61  82 E9        29.98S
HARLAN  *      PTSUNNY   66  64  94 E8        30.02R
LAMONI         CLOUDY    69  63  81 NE10      29.97F
RED OAK *      MOSUNNY   68  63  83 E7        29.96F
SHENANDOAH *   CLOUDY    68  64  88 E7        29.97S
$$

IAZ047>049-059>061-072>074-084-021700-
   CENTRAL IOWA

CITY           SKY/WX    TMP DP  RH WIND       PRES   REMARKS
AMES           CLOUDY    65  56  72 SE12      30.01F
ANKENY *       SUNNY     66  59  77 SE9       30.01R
CHARITON *     SUNNY     66  59  77 E10       29.98F
DES MOINES     CLOUDY    66  56  70 E9        30.00S
GRINNELL*      CLOUDY    64  54  68 E8        30.01F
KNOXVILLE *    SUNNY     66  54  63 E7G13     29.99S
MARSHALLTOWN   PTSUNNY   66  53  63 SE10      30.02S
PELLA *        CLOUDY    66  57  72 E8        30.01S
PERRY *          N/A     66  57  72 SE9       30.00F
$$

IAZ004>006-015-016-023>025-035-036-021700-
   NORTH CENTRAL IOWA

CITY           SKY/WX    TMP DP  RH WIND       PRES   REMARKS
ALGONA *       SUNNY     66  55  68 E12       30.02F
CLARION *      SUNNY     66  55  68 SE8       30.02F
ESTHERVILLE    CLOUDY    64  53  67 SE9       30.02F
FORT DODGE *   CLOUDY    66  57  72 E12       30.02S
MASON CITY     PTSUNNY   67  54  63 E12       30.05F
FOREST CITY *  SUNNY     64  52  63 E12       30.03F
IOWA FALLS *     N/A     66  55  68 E8        30.04S
$$

IAZ007>011-017>019-026>030-037>042-050>054-066-021700-
   NORTHEAST IOWA

CITY           SKY/WX    TMP DP  RH WIND       PRES   REMARKS
CEDAR RAPIDS   PTSUNNY   67  53  61 E8        30.01F
CLINTON *      SUNNY     66  52  59 NE14      30.04F
DECORAH *        N/A    N/A N/A N/A MISG        N/A
DUBUQUE        SUNNY     66  51  58 NE10      30.04S
MONTICELLO *   SUNNY     68 -40   1 E13       30.02F
OELWEIN *      SUNNY     66  54  63 E10G16    30.05S
WATERLOO       PTSUNNY   68  54  60 SE10      30.03S
$$

IAZ064-065-067-068-078-021700-
   EAST CENTRAL IOWA

CITY           SKY/WX    TMP DP  RH WIND       PRES   REMARKS
DAVENPORT      MOSUNNY   67  52  58 NE12      30.01F
IOWA CITY      PTSUNNY   67  49  52 E12       30.02S
MT. PLEASANT * CLOUDY    68  50  52 NE10      29.99F
MUSCATINE *    SUNNY     66  50  55 NE10      30.00F
QUAD CITIES    MOSUNNY   67  53  61 E13       29.99F
$$

IAZ062-063-075>077-085>089-095>099-021700-
   SOUTHEAST IOWA

CITY           SKY/WX    TMP DP  RH WIND       PRES   REMARKS
BURLINGTON     CLOUDY    66  57  72 NE10      29.98F
FAIRFIELD *    SUNNY     64  52  63 NE8       29.99F
FORT MADISON * SUNNY     64  57  77 NE8       29.98F
KEOKUK *       SUNNY     66  57  72 NE9       29.97S
OSKALOOSA *      N/A     64  52  63 E8        30.00S
CENTERVILLE *  SUNNY     66  57  72 NE13      29.99F
OTTUMWA        CLOUDY    65  54  67 NE10      29.98F
WASHINGTON *   SUNNY     64  50  59 E12G17    30.01F
$$

ABBREVIATIONS USED IN REMARKS
   TC - TEMPERATURES IN CELSIUS
  WCI - WIND CHILL INDEX
   HX - HEAT INDEX
  VSB - VISIBILITY
$$




USA.gov is the U.S. government's official web portal to all federal, state and local government web resources and services.